Voltar ao catálogo

STARLINK-6170

AtivoComunicaçõesVLEO
NORAD 57129·PAYLOAD·🇺🇸 United States

Lançado Jun 23, 2023 de Cape Canaveral Space Force Station

Loading…

Próximas Passagens (próximas 24 horas)

TLE

AtualizadoSource: CelesTrak SupGP

Época: Sep 14, 2026, 21:27 UTC

1 57129C 23090AE  26257.89423611  .00014945  00000+0  54143-3 0  2573
2 57129  43.0009 275.3022 0000968 304.4554  73.0105 15.27563356    11

Acompanhe STARLINK-6170 em tempo real com AllMySat

Download on the App Store